| time (UTC) | temp C | wind direction | speed KPH | gust KPH | rain 1hr cm | rain 24hr cm | rain mn cm | humidity % | barometer mb |
| 20260506133107 | 12 | 109 | 3.2 | 11.3 | 0.00 | 0.00 | 0.00 | 67 | 1030.5 |
| 20260506131613 | 12 | 113 | 4.8 | 9.7 | 0.00 | 0.00 | 0.00 | 66 | 1030.4 |
| 20260506130053 | 13 | 113 | 4.8 | 12.9 | 0.00 | 0.00 | 0.00 | 63 | 1030.3 |
| 20260506124553 | 13 | 101 | 8.0 | 14.5 | 0.00 | 0.00 | 0.00 | 62 | 1030.1 |
| 20260506123052 | 13 | 105 | 8.0 | 11.3 | 0.00 | 0.00 | 0.00 | 61 | 1030.1 |
| 20260506121556 | 14 | 112 | 9.7 | 14.5 | 0.00 | 0.00 | 0.00 | 60 | 1030.0 |
| 20260506120100 | 14 | 118 | 8.0 | 14.5 | 0.00 | 0.00 | 0.00 | 60 | 1029.9 |
| 20260506114551 | 14 | 123 | 8.0 | 14.5 | 0.00 | 0.00 | 0.00 | 60 | 1029.7 |
| 20260506113049 | 15 | 116 | 6.4 | 16.1 | 0.00 | 0.00 | 0.00 | 59 | 1029.7 |
| 20260506111549 | 15 | 123 | 8.0 | 16.1 | 0.00 | 0.00 | 0.00 | 58 | 1029.6 |
| 20260506110058 | 15 | 112 | 6.4 | 12.9 | 0.00 | 0.00 | 0.00 | 57 | 1029.3 |
| 20260506104601 | 15 | 128 | 4.8 | 8.0 | 0.00 | 0.00 | 0.00 | 56 | 1029.2 |
| 20260506103049 | 16 | 120 | 6.4 | 12.9 | 0.00 | 0.00 | 0.00 | 55 | 1029.3 |
| 20260506101546 | 16 | 123 | 4.8 | 9.7 | 0.00 | 0.00 | 0.00 | 54 | 1029.1 |
| 20260506100053 | 16 | 123 | 4.8 | 9.7 | 0.00 | 0.00 | 0.00 | 53 | 1029.0 |
| 20260506094545 | 17 | 114 | 4.8 | 9.7 | 0.00 | 0.00 | 0.00 | 51 | 1028.8 |
| 20260506093045 | 17 | 123 | 4.8 | 11.3 | 0.00 | 0.00 | 0.00 | 49 | 1028.6 |
| 20260506091544 | 18 | 126 | 4.8 | 11.3 | 0.00 | 0.00 | 0.00 | 48 | 1028.5 |
| 20260506090043 | 18 | 135 | 8.0 | 17.7 | 0.00 | 0.00 | 0.00 | 48 | 1028.5 |
| 20260506084613 | 19 | 121 | 11.3 | 16.1 | 0.00 | 0.00 | 0.00 | 47 | 1028.4 |
| 20260506083043 | 19 | 121 | 6.4 | 19.3 | 0.00 | 0.00 | 0.00 | 48 | 1028.3 |
| 20260506081551 | 20 | 153 | 9.7 | 19.3 | 0.00 | 0.00 | 0.00 | 47 | 1028.3 |
| 20260506073040 | 20 | 121 | 9.7 | 22.5 | 0.00 | 0.00 | 0.00 | 47 | 1028.2 |
| 20260506071538 | 20 | 167 | 8.0 | 17.7 | 0.00 | 0.00 | 0.00 | 47 | 1028.2 |
| 20260506061533 | 20 | 93 | 12.9 | 19.3 | 0.00 | 0.00 | 0.00 | 50 | 1028.3 |
| 20260506044524 | 18 | 38 | 6.4 | 20.9 | 0.00 | 0.00 | 0.00 | 57 | 1029.1 |
| 20260506043023 | 18 | 101 | 11.3 | 19.3 | 0.00 | 0.00 | 0.00 | 59 | 1029.3 |
| 20260506041519 | 18 | 69 | 11.3 | 17.7 | 0.00 | 0.00 | 0.00 | 61 | 1029.5 |
| 20260506040017 | 17 | 78 | 9.7 | 17.7 | 0.00 | 0.00 | 0.00 | 63 | 1029.7 |
| 20260506034516 | 17 | 87 | 9.7 | 27.4 | 0.00 | 0.00 | 0.00 | 64 | 1030.0 |
| 20260506033014 | 17 | 105 | 11.3 | 20.9 | 0.00 | 0.00 | 0.00 | 65 | 1030.1 |
| 20260506031512 | 16 | 109 | 11.3 | 20.9 | 0.00 | 0.00 | 0.00 | 66 | 1030.3 |
| 20260506030007 | 16 | 113 | 11.3 | 20.9 | 0.00 | 0.00 | 0.00 | 68 | 1030.5 |
| 20260506024507 | 16 | 62 | 9.7 | 19.3 | 0.00 | 0.00 | 0.00 | 68 | 1030.5 |
| 20260506023004 | 15 | 33 | 8.0 | 19.3 | 0.00 | 0.00 | 0.00 | 69 | 1030.6 |
| 20260506021501 | 15 | 57 | 8.0 | 17.7 | 0.00 | 0.00 | 0.00 | 70 | 1030.8 |
| 20260506020056 | 14 | 45 | 8.0 | 17.7 | 0.00 | 0.00 | 0.00 | 72 | 1031.0 |
| 20260506014553 | 13 | 101 | 9.7 | 17.7 | 0.00 | 0.00 | 0.00 | 74 | 1031.0 |
| 20260506013104 | 13 | 39 | 11.3 | 20.9 | 0.00 | 0.00 | 0.00 | 73 | 1031.0 |
| 20260506011612 | 13 | 40 | 8.0 | 17.7 | 0.00 | 0.00 | 0.00 | 74 | 1031.0 |
| 20260506010055 | 13 | 46 | 9.7 | 16.1 | 0.00 | 0.00 | 0.00 | 75 | 1030.8 |
| 20260506004543 | 12 | 115 | 4.8 | 12.9 | 0.00 | 0.00 | 0.00 | 78 | 1030.7 |
| 20260506003041 | 12 | 73 | 4.8 | 14.5 | 0.00 | 0.00 | 0.00 | 81 | 1030.6 |
| 20260506001537 | 11 | 120 | 4.8 | 12.9 | 0.00 | 0.00 | 0.00 | 82 | 1030.5 |
| 20260506000033 | 10 | 126 | 1.6 | 4.8 | 0.00 | 0.00 | 0.00 | 84 | 1030.4 |
| 20260505234530 | 10 | 121 | 0.0 | 9.7 | 0.00 | 0.00 | 0.00 | 84 | 1030.2 |
| 20260505233028 | 10 | 128 | 4.8 | 11.3 | 0.00 | 0.00 | 0.00 | 84 | 1030.1 |
| 20260505231541 | 8 | 107 | 3.2 | 6.4 | 0.00 | 0.00 | 0.00 | 86 | 1029.8 |
| 20260505230026 | 8 | 100 | 0.0 | 3.2 | 0.00 | 0.00 | 0.00 | 85 | 1029.7 |
| 20260505224521 | 8 | 101 | 0.0 | 1.6 | 0.00 | 0.00 | 0.00 | 84 | 1029.6 |
| 20260505223019 | 8 | 103 | 0.0 | 1.6 | 0.00 | 0.00 | 0.00 | 83 | 1029.4 |
| 20260505221514 | 9 | 103 | 0.0 | 4.8 | 0.00 | 0.00 | 0.00 | 82 | 1029.1 |
| 20260505220010 | 10 | 104 | 0.0 | 6.4 | 0.00 | 0.00 | 0.00 | 82 | 1028.9 |
| 20260505214508 | 9 | 81 | 1.6 | 4.8 | 0.00 | 0.00 | 0.00 | 82 | 1028.8 |
| 20260505213014 | 10 | 105 | 0.0 | 4.8 | 0.00 | 0.00 | 0.00 | 82 | 1028.8 |
| 20260505211509 | 10 | 103 | 0.0 | 4.8 | 0.00 | 0.00 | 0.00 | 81 | 1028.8 |
| 20260505210002 | 10 | 126 | 0.0 | 3.2 | 0.00 | 0.00 | 0.00 | 81 | 1028.5 |
| 20260505204559 | 10 | 127 | 0.0 | 6.4 | 0.00 | 0.00 | 0.00 | 80 | 1028.4 |
| 20260505203120 | 10 | 126 | 1.6 | 9.7 | 0.00 | 0.00 | 0.00 | 80 | 1028.4 |
| 20260505201603 | 10 | 101 | 3.2 | 6.4 | 0.00 | 0.00 | 0.00 | 79 | 1028.3 |
| 20260505200057 | 11 | 96 | 0.0 | 0.0 | 0.00 | 0.00 | 0.00 | 79 | 1028.2 |
| 20260505194553 | 11 | 96 | 0.0 | 9.7 | 0.00 | 0.00 | 0.00 | 79 | 1028.2 |
| 20260505193052 | 11 | 104 | 1.6 | 9.7 | 0.00 | 0.00 | 0.00 | 79 | 1028.2 |
| 20260505191601 | 11 | 115 | 3.2 | 11.3 | 0.00 | 0.00 | 0.00 | 79 | 1028.1 |
| 20260505190049 | 11 | 121 | 3.2 | 9.7 | 0.00 | 0.00 | 0.00 | 80 | 1028.0 |
| 20260505184550 | 11 | 124 | 3.2 | 11.3 | 0.00 | 0.00 | 0.00 | 80 | 1028.1 |
| 20260505183049 | 10 | 99 | 3.2 | 9.7 | 0.00 | 0.00 | 0.00 | 81 | 1028.1 |
| 20260505181548 | 10 | 122 | 0.0 | 0.0 | 0.00 | 0.00 | 0.00 | 78 | 1028.0 |
| 20260505180044 | 11 | 121 | 0.0 | 3.2 | 0.00 | 0.00 | 0.00 | 77 | 1028.0 |
| 20260505174545 | 11 | 123 | 3.2 | 12.9 | 0.00 | 0.00 | 0.00 | 77 | 1027.9 |
| 20260505173041 | 11 | 115 | 6.4 | 12.9 | 0.00 | 0.00 | 0.00 | 76 | 1027.8 |
| 20260505171544 | 11 | 104 | 3.2 | 11.3 | 0.00 | 0.00 | 0.00 | 76 | 1028.0 |
| 20260505170100 | 11 | 109 | 1.6 | 6.4 | 0.00 | 0.00 | 0.00 | 77 | 1027.9 |
| 20260505164541 | 11 | 100 | 0.0 | 0.0 | 0.00 | 0.00 | 0.00 | 74 | 1027.8 |
| 20260505163035 | 11 | 101 | 0.0 | 0.0 | 0.00 | 0.00 | 0.00 | 72 | 1027.9 |
| 20260505161529 | 12 | 114 | 1.6 | 9.7 | 0.00 | 0.00 | 0.00 | 72 | 1027.8 |
| 20260505153024 | 12 | 111 | 9.7 | 17.7 | 0.00 | 0.00 | 0.00 | 70 | 1027.6 |
| 20260505151523 | 12 | 158 | 1.6 | 9.7 | 0.00 | 0.00 | 0.00 | 70 | 1027.6 |